Powrót do katalogu

CZ-6A DEB

AktywnyPO
NORAD 61087·DEBRIS·🇨🇳 China

Wystrzelony Aug 6, 2024 z Taiyuan Satellite Launch Center

Loading…

Następne Przeloty (najbliższe 24 godziny)

TLE

ŚwieżeSource: Space-Track

Epoka: Sep 14, 2026, 10:02 UTC

1 61087U 24140ND  26257.41839214  .00001343  00000-0  30337-3 0  9997
2 61087  88.9078 251.4441 0092876 322.5961  36.8805 14.53068408108687

Śledź CZ-6A DEB w czasie rzeczywistym z AllMySat

Download on the App Store